Voltar ao catálogo

STARLINK-37624

AtivoComunicaçõesVLEO
NORAD 69833·PAYLOAD·🇺🇸 United States

Lançado Jul 5, 2026 de Cape Canaveral Space Force Station

Loading…

Próximas Passagens (próximas 24 horas)

TLE

AtualizadoSource: CelesTrak SupGP

Época: Sep 15, 2026, 04:04 UTC

1 69833C 26154Q   26258.16993056  .00074952  00000+0  22138-2 0  2581
2 69833  53.1585 356.5532 0001274  88.2922 181.2435 15.34363218    13

Acompanhe STARLINK-37624 em tempo real com AllMySat

Download on the App Store